Voltar ao catálogo

STARLINK-31776

AtivoComunicaçõesVLEO
NORAD 59603·PAYLOAD·🇺🇸 United States

Lançado Apr 28, 2024 de Cape Canaveral Space Force Station

Loading…

Próximas Passagens (próximas 24 horas)

TLE

AtualizadoSource: CelesTrak SupGP

Época: Sep 14, 2026, 22:21 UTC

1 59603C 24080C   26257.93173611  .00054630  00000+0  19785-2 0  2576
2 59603  43.0035  52.8928 0001480 275.3591  15.5035 15.27554920    19

Acompanhe STARLINK-31776 em tempo real com AllMySat

Download on the App Store